Location: Stilling
(56.0622°N, 9.9882°E)
Time: 12:08:34
(UTC+00:00)

Spot 4 - Pass Details

Date: 13 July 2020
Orbit: 705 x 723 km, 98.3° (Epoch: 07 August)

Event Time Altitude Azimuth Distance (km) Brightness Sun altitude
Exits shadow 22:37:23 14° 190° (S) 1,905 5.5 -11.6°
Maximum altitude 22:41:15 46° 261° (W) 947 4.5 -11.7°
Drops below altitude 10° 22:45:52 10° 335° (NNW) 2,189 7.7 -11.8°
Sets 22:48:14 0° 341° (NNW) 3,113 9.1 -11.9°
